Home   Weather   Bamyan   Past weeks

Flag for Afghanistan Past Weather in Bamyan, Afghanistan — Yesterday and Last 2 Weeks

Now
86 °F

Sunny.


Feels Like: 83 °F
Forecast: 32 / 51 °F
Wind: 7 mph from Southwest

Location: Termez Airport

Current Time: Apr 25, 2017 at 1:08:08 pm

Latest Report: Apr 25, 2017 at 12:00 pm


Visibility: 10 mi

Pressure: 29.89 "Hg (22.57 "Hg at 2492m altitude)

Humidity: 22%

Dew Point: 43 °F

Location of BamyanLocation

Past Weather in Bamyan — Graph

°F

Bamyan Temperature Yesterday

Maximum temperature yesterday: 86 °F (at 1:30 pm)
Minimum temperature yesterday: 52 °F (at 4:00 am)
Average temperature yesterday: 71 °F

High & Low Weather Summary for the Past Weeks

 TemperatureHumidityPressure
High95 °F (Apr 16, 3:00 pm)94% (Apr 14, 5:00 am)30.36 "Hg (Apr 14, 5:00 am)
Low52 °F (Apr 14, 4:30 am)6% (Apr 23, 4:00 pm)29.71 "Hg (Apr 20, 2:30 am)
Average72 °F46%29.98 "Hg
* Reported Apr 10 12:00 pm — Apr 25 11:30 am, Bamyan, Weather by CustomWeather, © 2017

Note: Actual official high and low records may vary slightly from our data, if they occured in-between our weather recording intervals... More about our weather records

Advertising

Bamyan Weather History for the Previous 24 Hours

Scroll right to see more
 ConditionsComfort  
Time TempWeatherWind HumidityBarometerVisibility
11:30 am
Tue, Apr 25
86 °FPassing clouds.7 mph24%29.89 "HgN/A
11:00 am86 °FPassing clouds.5 mph24%29.89 "HgN/A
10:30 am84 °FSunny.2 mph25%29.89 "Hg10 mi
10:00 am84 °FPassing clouds.5 mph25%29.89 "HgN/A
9:30 am81 °FSunny.2 mph28%29.89 "Hg10 mi
9:00 am81 °FSunny.5 mph28%29.89 "Hg10 mi
8:00 am75 °FSunny.5 mph39%29.89 "Hg10 mi
7:30 am70 °FSunny.7 mph46%29.89 "Hg10 mi
7:00 am66 °FSunny.7 mph56%29.89 "Hg10 mi
6:00 am63 °FSunny.7 mph64%29.86 "Hg10 mi
5:30 am59 °FSunny.9 mph72%29.86 "Hg10 mi
5:00 am61 °FClear.9 mph68%29.86 "Hg10 mi
4:30 am61 °FClear.9 mph68%29.86 "Hg10 mi
4:00 am61 °FClear.9 mph63%29.86 "Hg10 mi
3:00 am61 °FClear.7 mph63%29.86 "Hg10 mi
2:30 am61 °FClear.7 mph63%29.86 "Hg10 mi
2:00 am61 °FClear.7 mph59%29.86 "Hg10 mi
1:30 am61 °FClear.7 mph59%29.86 "Hg10 mi
1:00 am61 °FClear.5 mph63%29.86 "Hg10 mi
12:00 am63 °FClear.7 mph52%29.86 "Hg10 mi
11:30 pm
Mon, Apr 24
63 °FClear.7 mph52%29.86 "Hg10 mi
11:00 pm63 °FClear.7 mph52%29.86 "Hg10 mi
10:30 pm64 °FClear.5 mph49%29.86 "Hg10 mi
10:00 pm66 °FClear.7 mph43%29.86 "Hg10 mi
9:30 pm66 °FClear.5 mph46%29.86 "Hg10 mi
9:00 pm68 °FClear.5 mph43%29.86 "Hg10 mi
8:30 pm72 °FClear.5 mph36%29.86 "Hg10 mi
8:00 pm72 °FClear.5 mph33%29.86 "Hg10 mi
7:30 pm73 °FClear.5 mph31%29.86 "Hg10 mi
6:30 pm77 °FSunny.5 mph28%29.83 "Hg10 mi
6:00 pm82 °FSunny.7 mph20%29.83 "Hg10 mi
5:30 pm84 °FSunny.9 mph18%29.83 "Hg10 mi
5:00 pm84 °FPassing clouds.5 mph16%29.83 "HgN/A
4:00 pm86 °FPassing clouds.7 mph14%29.86 "HgN/A
3:30 pm86 °FPassing clouds.5 mph14%29.86 "HgN/A
3:00 pm86 °FSunny.2 mph13%29.86 "Hg10 mi
2:00 pm86 °FSunny.5 mph12%29.89 "Hg10 mi
1:30 pm86 °FPassing clouds.5 mph13%29.89 "HgN/A
1:00 pm84 °FSunny.5 mph14%29.92 "Hg10 mi
Weather by CustomWeather, © 2017

See weather overviewHow to use our weather pages